Regional Weather Roundup
Issued by NWS

Home | Current Version | Previous Version | Graphics & Text | Print | Product List | Glossary On
Versions: 1 2 3 4 5 6 7 8 9 10 11 12 13 14 15 16 17 18 19 20 21 22 23 24 25 26 27 28 29 30 31 32 33 34 35 36 37 38 39 40 41 42 43 44 45 46 47 48 49 50
000
ASUS43 KLSX 301307
RWRMO

WEATHER SUMMARY FOR MISSOURI
NATIONAL WEATHER SERVICE SPRINGFIELD MO
700 AM CST FRI JAN 30 2015

NOTE: "FAIR" INDICATES FEW OR NO CLOUDS BELOW 12,000 FEET WITH NO
       SIGNIFICANT WEATHER AND/OR OBSTRUCTIONS TO VISIBILITY.
       CURRENT SKY AND/OR WEATHER CONDITIONS ARE NOT AVAILABLE FOR
       CHILLICOTHE AND FARMINGTON.

MOZ001>031-035>038-043-044-053-054-301400-
...NORTHERN AND WESTERN MISSOURI...

CITY           SKY/WX    TMP DP  RH WIND       PRES   REMARKS
KANSAS CTY INT PTCLDY    23  19  85 NE3       30.53R
KANSAS C DTWN  PTCLDY    24  20  84 CALM      30.55R
LEE`S SUMMIT   PTCLDY    23  19  85 N3        30.54R
ST JOSEPH      PTCLDY    12  10  92 CALM      30.56R FOG
CHILLICOTHE      N/A     22  17  81 NE6       30.56S WCI  14
KIRKSVILLE     CLEAR     18  16  92 NE3       30.54R

$$
MOZ066>068-077>081-088>096-101>105-301400-
...SOUTHWEST MISSOURI...

CITY           SKY/WX    TMP DP  RH WIND       PRES   REMARKS
SPRINGFIELD    FAIR      22  19  89 N7        30.49R WCI  13
JOPLIN         CLEAR     24  21  88 VRB3      30.53R

$$
MOZ032>034-039>042-045>050-055>058-069>072-301400-
...CENTRAL MISSOURI...

CITY           SKY/WX    TMP DP  RH WIND       PRES   REMARKS
COLUMBIA       CLEAR     21  18  88 N6        30.52R WCI  13
JEFFERSON CITY CLEAR     23  19  85 CALM      30.55R
ROLLA          CLEAR     22  19  89 N7        30.47S WCI  13
SEDALIA        CLEAR     23  19  85 N7        30.54R WCI  15
WHITEMAN AFB   CLEAR     20  17  89 N5        30.54R WCI  13
WARRENSBURG    CLEAR     21  19  93 CALM      30.55R
OSAGE BEACH    CLEAR     25  19  80 NW3       30.52R

$$
MOZ051-052-059>065-301400-
...EAST CENTRAL MISSOURI...

CITY           SKY/WX    TMP DP  RH WIND       PRES   REMARKS
ST LOUIS INTL  MOCLDY    30  18  60 N14       30.53R WCI  19
SPIRIT OF STL  CLOUDY    29  19  66 N8        30.54R WCI  21
ST CHARLES     CLEAR     25  18  74 N7        30.54R WCI  17

$$
MOZ072>076-082>087-097>100-106>115-301400-
...SOUTH CENTRAL AND SOUTHEAST MISSOURI...

CITY           SKY/WX    TMP DP  RH WIND       PRES   REMARKS
CAPE GIRARDEAU CLEAR     31  24  75 N10       30.50R WCI  22
FARMINGTON     MOCLDY    27  21  80 N8        30.52R WCI  18
POPLAR BLUFF   CLEAR     29  22  75 N8        30.49R WCI  21
WEST PLAINS    CLEAR     25  19  78 N6        30.48R WCI  18

$$


USA.gov is the U.S. government's official web portal to all federal, state and local government web resources and services.